When you browse on this site, cookies collect data to enhance your experience and personalize the content and advertising you see.
Visit our Privacy Policy to learn more. By continuing to use the site, you agree to this use of cookies and data.
  • In Romania
  • List of Countries
  • For 7 days
  • Water Temperature
  • Weather Map
  • Weather Widgets
  • user-avatar
    Login

    Hourly Weather Stepanakert

    Today, 4 June, Thursday

    Time Temperature Precipitation Wind Pressure Humidity
    00:00 +19°C° 0 mm 2 mps 688 mmHg 65%
    01:00 +19°C° 0 mm 2 mps 688 mmHg 64%
    02:00 +20°C° 0 mm 1 mps 688 mmHg 64%
    03:00 +20°C° 0 mm 1 mps 688 mmHg 64%
    04:00 +20°C° 0 mm 1 mps 689 mmHg 64%
    05:00 +21°C° 0 mm 1 mps 689 mmHg 65%
    06:00 +22°C° 0 mm 1 mps 690 mmHg 65%
    07:00 +23°C° 0 mm 1 mps 690 mmHg 61%
    08:00 +24°C° 0 mm 2 mps 690 mmHg 57%
    09:00 +26°C° 0 mm 2 mps 690 mmHg 53%
    10:00 +27°C° 0 mm 2 mps 690 mmHg 51%
    11:00 +28°C° 0 mm 3 mps 690 mmHg 50%
    12:00 +28°C° 0 mm 3 mps 691 mmHg 48%
    13:00 +29°C° 0 mm 3 mps 690 mmHg 48%
    14:00 +29°C° 0 mm 3 mps 690 mmHg 49%
    15:00 +29°C° 0 mm 3 mps 690 mmHg 50%
    16:00 +27°C° 0.1 mm 3 mps 690 mmHg 57%
    17:00 +26°C° 0.1 mm 3 mps 690 mmHg 64%
    18:00 +25°C° 0.1 mm 2 mps 690 mmHg 71%
    19:00 +23°C° 0.1 mm 2 mps 690 mmHg 76%
    20:00 +21°C° 0.1 mm 1 mps 690 mmHg 81%
    21:00 +20°C° 0.1 mm 1 mps 690 mmHg 86%
    22:00 +20°C° 0 mm 1 mps 691 mmHg 86%
    23:00 +19°C° 0 mm 1 mps 691 mmHg 86%

    Tomorrow, 5 June, Friday

    Time Temperature Precipitation Wind Pressure Humidity
    00:00 +19°C° 0 mm 1 mps 691 mmHg 86%
    01:00 +19°C° 0 mm 1 mps 691 mmHg 84%
    02:00 +18°C° 0 mm 1 mps 691 mmHg 83%
    03:00 +18°C° 0 mm 1 mps 691 mmHg 81%
    04:00 +19°C° 0 mm 1 mps 692 mmHg 80%
    05:00 +19°C° 0 mm 1 mps 692 mmHg 79%
    06:00 +20°C° 0 mm 1 mps 693 mmHg 78%
    07:00 +21°C° 0.2 mm 1 mps 693 mmHg 74%
    08:00 +23°C° 0.2 mm 2 mps 693 mmHg 69%
    09:00 +24°C° 0.2 mm 2 mps 693 mmHg 65%
    10:00 +25°C° 0.4 mm 2 mps 693 mmHg 63%
    11:00 +26°C° 0.4 mm 2 mps 693 mmHg 61%
    12:00 +27°C° 0.4 mm 2 mps 693 mmHg 59%
    13:00 +27°C° 0.7 mm 2 mps 693 mmHg 57%
    14:00 +27°C° 0.7 mm 2 mps 692 mmHg 54%
    15:00 +28°C° 0.7 mm 2 mps 692 mmHg 51%
    16:00 +27°C° 0.5 mm 2 mps 692 mmHg 54%
    17:00 +26°C° 0.5 mm 2 mps 693 mmHg 56%
    18:00 +26°C° 0.5 mm 1 mps 693 mmHg 59%
    19:00 +24°C° 0.2 mm 1 mps 693 mmHg 64%
    20:00 +22°C° 0.2 mm 1 mps 693 mmHg 69%
    21:00 +20°C° 0.2 mm 1 mps 694 mmHg 74%
    22:00 +19°C° 0.2 mm 1 mps 694 mmHg 75%
    23:00 +19°C° 0.2 mm 1 mps 694 mmHg 76%

    Day after tomorrow, 6 June, Saturday

    Time Temperature Precipitation Wind Pressure Humidity
    00:00 +19°C° 0.2 mm 1 mps 694 mmHg 77%
    01:00 +18°C° 0 mm 1 mps 694 mmHg 77%
    02:00 +18°C° 0 mm 1 mps 694 mmHg 77%
    03:00 +18°C° 0 mm 1 mps 694 mmHg 77%
    04:00 +18°C° 0.1 mm 1 mps 695 mmHg 77%
    05:00 +19°C° 0.1 mm 1 mps 695 mmHg 76%
    06:00 +20°C° 0.1 mm 1 mps 695 mmHg 76%
    07:00 +21°C° 0.2 mm 1 mps 696 mmHg 71%
    08:00 +21°C° 0.2 mm 2 mps 696 mmHg 67%
    09:00 +22°C° 0.2 mm 3 mps 696 mmHg 62%
    10:00 +24°C° 0.4 mm 3 mps 696 mmHg 60%
    11:00 +25°C° 0.4 mm 3 mps 696 mmHg 58%
    12:00 +25°C° 0.4 mm 4 mps 696 mmHg 56%
    13:00 +25°C° 0.8 mm 4 mps 695 mmHg 57%
    14:00 +25°C° 0.8 mm 4 mps 695 mmHg 57%
    15:00 +25°C° 0.8 mm 4 mps 695 mmHg 58%
    16:00 +24°C° 0.7 mm 3 mps 695 mmHg 62%
    17:00 +22°C° 0.7 mm 3 mps 695 mmHg 65%
    18:00 +21°C° 0.7 mm 2 mps 695 mmHg 68%
    19:00 +20°C° 0.6 mm 2 mps 695 mmHg 72%
    20:00 +19°C° 0.6 mm 2 mps 695 mmHg 75%
    21:00 +19°C° 0.6 mm 1 mps 695 mmHg 78%
    22:00 +18°C° 0.1 mm 1 mps 695 mmHg 77%
    23:00 +18°C° 0.1 mm 1 mps 695 mmHg 77%

    7 June, Sunday

    Time Temperature Precipitation Wind Pressure Humidity
    00:00 +18°C° 0.1 mm 1 mps 695 mmHg 76%
    01:00 +16°C° 0 mm 1 mps 695 mmHg 75%
    02:00 +16°C° 0 mm 1 mps 695 mmHg 74%
    03:00 +16°C° 0 mm 1 mps 695 mmHg 74%
    04:00 +18°C° 0 mm 1 mps 695 mmHg 72%
    05:00 +19°C° 0 mm 1 mps 695 mmHg 71%
    06:00 +17°C° 0 mm 0 mps 695 mmHg 69%
    07:00 +21°C° 0.1 mm 1 mps 696 mmHg 65%
    08:00 +22°C° 0.1 mm 1 mps 696 mmHg 61%
    09:00 +23°C° 0.1 mm 2 mps 696 mmHg 58%
    10:00 +24°C° 0.3 mm 2 mps 696 mmHg 56%
    11:00 +25°C° 0.3 mm 2 mps 696 mmHg 55%
    12:00 +25°C° 0.3 mm 2 mps 696 mmHg 53%
    13:00 +26°C° 0.3 mm 2 mps 695 mmHg 51%
    14:00 +26°C° 0.3 mm 2 mps 695 mmHg 49%
    15:00 +26°C° 0.3 mm 2 mps 695 mmHg 47%
    16:00 +26°C° 0 mm 2 mps 695 mmHg 50%
    17:00 +25°C° 0 mm 2 mps 695 mmHg 53%
    18:00 +25°C° 0 mm 1 mps 695 mmHg 56%
    19:00 +23°C° 0 mm 1 mps 695 mmHg 59%
    20:00 +20°C° 0 mm 2 mps 695 mmHg 62%
    21:00 +19°C° 0 mm 2 mps 695 mmHg 64%
    22:00 +18°C° 0 mm 2 mps 695 mmHg 65%
    23:00 +18°C° 0 mm 2 mps 694 mmHg 65%

    8 June, Monday

    Time Temperature Precipitation Wind Pressure Humidity
    00:00 +17°C° 0 mm 2 mps 694 mmHg 65%
    01:00 +17°C° 0 mm 2 mps 694 mmHg 65%
    02:00 +17°C° 0 mm 2 mps 694 mmHg 65%
    03:00 +16°C° 0 mm 2 mps 694 mmHg 64%
    04:00 +17°C° 0 mm 2 mps 694 mmHg 64%
    05:00 +19°C° 0 mm 1 mps 694 mmHg 63%
    06:00 +20°C° 0 mm 1 mps 695 mmHg 63%
    07:00 +22°C° 0 mm 1 mps 695 mmHg 57%
    08:00 +23°C° 0 mm 1 mps 695 mmHg 51%
    09:00 +25°C° 0 mm 1 mps 695 mmHg 45%
    10:00 +26°C° 0 mm 2 mps 695 mmHg 44%
    11:00 +27°C° 0 mm 2 mps 695 mmHg 42%
    12:00 +27°C° 0 mm 2 mps 694 mmHg 41%
    13:00 +28°C° 0 mm 2 mps 694 mmHg 40%
    14:00 +28°C° 0 mm 3 mps 694 mmHg 40%
    15:00 +29°C° 0 mm 3 mps 694 mmHg 40%
    16:00 +28°C° 0 mm 2 mps 693 mmHg 43%
    17:00 +27°C° 0 mm 2 mps 693 mmHg 46%
    18:00 +26°C° 0 mm 1 mps 693 mmHg 49%
    19:00 +24°C° 0 mm 2 mps 693 mmHg 50%
    20:00 +21°C° 0 mm 2 mps 693 mmHg 51%
    21:00 +19°C° 0 mm 2 mps 693 mmHg 52%
    22:00 +19°C° 0 mm 2 mps 693 mmHg 51%
    23:00 +19°C° 0 mm 2 mps 693 mmHg 50%

    9 June, Tuesday

    Time Temperature Precipitation Wind Pressure Humidity
    00:00 +18°C° 0 mm 2 mps 693 mmHg 49%
    01:00 +18°C° 0 mm 2 mps 693 mmHg 49%
    02:00 +18°C° 0 mm 2 mps 693 mmHg 48%
    03:00 +17°C° 0 mm 2 mps 692 mmHg 47%
    04:00 +18°C° 0 mm 2 mps 693 mmHg 49%
    05:00 +20°C° 0 mm 1 mps 693 mmHg 51%
    06:00 +21°C° 0 mm 1 mps 693 mmHg 53%
    07:00 +22°C° 0 mm 1 mps 693 mmHg 46%
    08:00 +24°C° 0 mm 2 mps 694 mmHg 39%
    09:00 +26°C° 0 mm 2 mps 694 mmHg 32%
    10:00 +27°C° 0 mm 2 mps 694 mmHg 31%
    11:00 +27°C° 0 mm 2 mps 694 mmHg 30%
    12:00 +28°C° 0 mm 2 mps 694 mmHg 29%
    13:00 +28°C° 0 mm 2 mps 693 mmHg 29%
    14:00 +29°C° 0 mm 3 mps 693 mmHg 30%
    15:00 +29°C° 0 mm 3 mps 693 mmHg 31%
    16:00 +28°C° 0 mm 2 mps 692 mmHg 35%
    17:00 +27°C° 0 mm 2 mps 692 mmHg 40%
    18:00 +26°C° 0 mm 2 mps 692 mmHg 44%
    19:00 +24°C° 0 mm 2 mps 692 mmHg 45%
    20:00 +21°C° 0 mm 2 mps 692 mmHg 47%
    21:00 +19°C° 0 mm 2 mps 692 mmHg 48%
    22:00 +19°C° 0 mm 2 mps 692 mmHg 48%
    23:00 +18°C° 0 mm 2 mps 692 mmHg 47%
    Show more